Regional Weather Roundup
Issued by NWS

Home | Current Version | Previous Version | Text Only | Print | Product List | Glossary Off
Versions: 1 2 3 4 5 6 7 8 9 10 11 12 13 14 15 16 17 18 19 20 21 22 23 24 25 26 27 28 29 30 31 32 33 34 35 36 37 38 39 40 41 42 43 44 45 46 47 48 49 50

000
ASUS43 KIND 240709
RWRIN

WEATHER ROUNDUP FOR INDIANA
NATIONAL WEATHER SERVICE INDIANAPOLIS IN
300 AM EDT WED MAY 24 2017

NOTE: "FAIR" INDICATES FEW OR NO CLOUDS BELOW 12,000 FEET WITH NO
SIGNIFICANT WEATHER AND/OR OBSTRUCTIONS TO VISIBILITY.

* - STATION DOES NOT REPORT WEATHER SUCH AS PRECIPITATION OR FOG.

+ - STATION NOT QUALITY CONTROLLED BY THE NATIONAL WEATHER SERVICE.
    USE DATA WITH CAUTION...ESPECIALLY DEWPOINT AND RELATIVE
    HUMIDITY OBSERVATIONS.

INZ001>003-010>013-019-020-240800-
NORTHWEST INDIANA

CITY           SKY/WX    TMP DP  RH WIND       PRES   REMARKS
GARY /AIRPORT/ RAIN      55  54  96 N7        29.63F
KNOX *+        CLOUDY    55  50  82 N5        29.60S
LA PORTE +     CLOUDY    56  54  94 N7        29.61F
MICHIGAN CITY+ CLOUDY    55  55 100 CALM      29.62F
MONTICELLO +   CLOUDY    57  55  94 N3        29.59F
RENSSELAER +   CLOUDY    55  54  94 NW5       29.61F
VALPARAISO     CLOUDY    57  55  93 N3        29.62F

$$

LMZ046-743>745-240800-
SOUTHERN LAKE MICHIGAN

STATION/POSITION TIME  TEMP    WIND        PRES    WAVE
                       AIR SEA DIR/SP/G            HT
                 (UTC) (F)     (DEG/KT/KT) (MB)    (FT)
BURNS HARBOR     0703   54      50/  4/  7 1003.7
MICHIGAN CITY    0640   54      30/  6/  7   N/A
5NW MICH CITY    0700   53 53   30/  8/ 10   N/A     1

$$

INZ004-005-014>016-021>024-240800-
NORTH CENTRAL INDIANA

CITY           SKY/WX    TMP DP  RH WIND       PRES   REMARKS
GOSHEN         CLOUDY    58  53  84 NE7       29.60F
LOGANSPORT +   CLOUDY    59  52  77 CALM      29.59F
PERU/GRISSOM   CLOUDY    61  53  75 E9        29.57F
ROCHESTER +    PTCLDY    61  54  77 E5        29.59F
SOUTH BEND     CLOUDY    56  54  93 NE6       29.62F
WARSAW +       CLOUDY    57  52  82 E8        29.60F

$$

INZ006>009-017-018-025>027-240800-
NORTHEAST INDIANA

CITY           SKY/WX    TMP DP  RH WIND       PRES   REMARKS
ANGOLA *+      PTCLDY    57  54  88 E6        29.62F
AUBURN +       CLOUDY    59  50  72 NE8       29.62F
FORT WAYNE     CLOUDY    60  50  69 E7        29.60F
HUNTINGTON +   CLOUDY    59  51  73 E5        29.60S
KENDALLVILLE + CLOUDY    58  53  84 E7        29.62F

$$

INZ028-029-035-036-043>045-051>053-240800-
WEST CENTRAL INDIANA

CITY           SKY/WX    TMP DP  RH WIND       PRES   REMARKS
CRAWFORDSVL +  CLOUDY    55  55 100 NW6       29.59F
GREENCASTLE +  CLOUDY    59  54  82 NW5       29.59F
LAFAYETTE      CLOUDY    57  55  93 NW5       29.59F
TERRE HAUTE    CLOUDY    61  53  75 NW5       29.59F

$$

INZ030>032-037>040-046>048-054>057-064-065-240800-
CENTRAL INDIANA

CITY           SKY/WX    TMP DP  RH WIND       PRES   REMARKS
CP ATTERBURY + CLOUDY    59  55  88 CALM      29.58F
FRANKFORT +    CLOUDY    62  59  90 N6        29.60F
GREENWOOD *+   CLOUDY    62  53  71 CALM      29.59F
INDIANAPOLIS   LGT RAIN  62  53  72 SW6       29.57F
-EAGLE CREEK   CLOUDY    63  53  70 CALM      29.57F
KOKOMO +       CLOUDY    61  54  77 E7        29.58F
MARION +       CLOUDY    61  52  72 E8        29.59F
MT COMFORT *+  CLOUDY    61  54  77 CALM      29.58F
SHELBYVILLE    PTCLDY    63  53  70 CALM      29.57F
ZIONSVILLE +   CLOUDY    59  55  89 W7        29.58F

$$

INZ033-034-041-042-049-050-058-059-240800-
EAST CENTRAL INDIANA

CITY           SKY/WX    TMP DP  RH WIND       PRES   REMARKS
MUNCIE         CLOUDY    64  51  62 S3        29.58F
RICHMOND +     CLOUDY    59  55  88 SE3       29.60F

$$

INZ060-061-067>069-081>083-085>088-240800-
SOUTHWEST INDIANA

CITY           SKY/WX    TMP DP  RH WIND       PRES   REMARKS
EVANSVILLE     CLOUDY    65  54  67 NW5       29.59F
HUNTINGBURG *+ CLOUDY    62  56  80 NW7       29.59F
WASHINGTON +   CLOUDY    62  54  75 NW7       29.59F

$$

INZ062-063-066-070>080-084-089>092-240800-
SOUTH CENTRAL AND SOUTHEAST INDIANA

CITY           SKY/WX    TMP DP  RH WIND       PRES   REMARKS
BLOOMINGTON    CLOUDY    60  55  83 W6        29.58F
MADISON *+     CLOUDY    61  59  94 CALM      29.61F
NORTH VERNON + PTCLDY    59  55  88 CALM      29.59F

$$





USA.gov is the U.S. government's official web portal to all federal, state and local government web resources and services.